User: anonymous   Login
Location: ??? ???
(33.4974°N, 35.4618°E)
Time: 16:31:45
(UTC+00:00)
Language:

Cosmos 2082 - Orbit

View from above orbital plane
View from above orbital plane
View from above satellite
View from above satellite

Ground track
Ground track

The orbit data is extracted from the following two-line orbital elements,

1 20624U 90046A   21017.16207289  .00000086  00000-0  69473-4 0  9996
2 20624  71.0419 352.5007 0015552 198.3591 161.6973 14.14354089582405
Epoch (UTC): 17 January 2021 03:53:23
Eccentricity: 0.0015552
inclination: 71.0419°
perigee height: 833 km
apogee height: 856 km
right ascension of ascending node: 352.5007°
argument of perigee: 198.3591°
revolutions per day: 14.14354089
mean anomaly at epoch: 161.6973°
orbit number at epoch: 58240

The dashed part of the orbit path shows where the satellite is in the earth's shadow,  

DLR